Regional Weather Roundup
Issued by NWS

Home | Current Version | Previous Version | Text Only | Print | Product List | Glossary On
Versions: 1 2 3 4 5 6 7 8 9 10 11 12 13 14 15 16 17 18 19 20 21 22 23 24 25 26 27
000
ASUS42 KKEY 170810
RWRKEY

FLORIDA REGIONAL WEATHER ROUNDUP FOR THE FLORIDA KEYS
NATIONAL WEATHER SERVICE KEY WEST FLORIDA
400 AM EDT THU AUG 17 2017

...SOUTH FLORIDA AND THE KEYS...

CITY           SKY/WX    TMP DP  RH WIND       PRES   REMARKS
FORT MYERS     CLEAR     78  78 100 NE3       30.05S
SW REGIONAL AP CLEAR     78  75  90 CALM      30.05F
NAPLES         CLEAR     77  75  93 E5        30.04F
MIAMI          MOCLDY    85  75  72 E6        30.05F HX  93
WEST KENDALL   PTCLDY    80  76  87 CALM      30.05S
HOMESTEAD      CLEAR     80  78  93 N3        30.03F
MARATHON       PTCLDY    85  78  80 E6        30.03F HX  96
BOCA CHICA NAS PTCLDY    84  80  88 E8        30.03S HX  97
KEY WEST INTL  PTCLDY    86  77  74 E12       30.03S HX  97

...INTERNATIONAL WEATHER...

CITY           SKY/WX    TMP DP  RH WIND       PRES   REMARKS
NASSAU BAHAMAS PTCLDY    82  77  83 CALM      30.06F HX  91
CANCUN MEXICO  PTCLDY    79  79 100 CALM      29.98F
COZUMEL MEXICO PTCLDY    79  77  94 CALM      29.97F

ADJACENT COASTAL WATERS...

STATION/POSITION TIME  SKY/WX   TEMP    WIND        PRES    WAVE
                                AIR SEA DIR/SP/G            HT/PER
                 (UTC)          (F)     (DEG/KT/KT) (MB)    (FT/S)
PULASKI SHOAL LI 0800            86     140/  9/ 10 1016.9F
SAND KEY         0750            85     120/ 13/ 15 1017.4F
LONG KEY         NOT AVBL
MOLASSES REEF    NOT AVBL
FOWEY ROCKS      0700            85 87  110/  6/  7 1018.3F
Buoy 42097       0730               88                N/A     1/ 3

$$




USA.gov is the U.S. government's official web portal to all federal, state and local government web resources and services.